GEC18 EDDF-ELLX

Flight info

Callsign GEC18
Flight time 0h 25m
Altitude 16000
Route SOBRA2L SOBRA Y180 BITBU Z110 BETEX
Aircraft MD11/H-SDE1E2E3FGHIJ2J3J4J5M1RWXY/LB1D1

Departure

Time 2026-04-16 12:24
Airport Frankfurt Main Airport (EDDF)

Arrival

Time 2026-04-16 12:49
Airport Luxembourg-Findel International Airport (ELLX)
Time Latitude Longitude Altitude Speed Heading
2026-04-16 11:53 50.04120 8.54734 366 ft 0 kts 71°
2026-04-16 12:09 50.04113 8.54703 367 ft 4 kts 71°
2026-04-16 12:09 50.04104 8.54664 365 ft 4 kts 70°
2026-04-16 12:10 50.04095 8.54625 364 ft 4 kts 69°
2026-04-16 12:10 50.04085 8.54585 363 ft 4 kts 69°
2026-04-16 12:10 50.04079 8.54562 362 ft 0 kts 70°
2026-04-16 12:12 50.04080 8.54562 362 ft 0 kts 70°
2026-04-16 12:16 50.04082 8.54573 364 ft 5 kts 70°
2026-04-16 12:16 50.04076 8.54624 364 ft 4 kts 122°
2026-04-16 12:16 50.04055 8.54647 363 ft 3 kts 155°
2026-04-16 12:16 50.04033 8.54658 358 ft 4 kts 160°
2026-04-16 12:17 50.04006 8.54673 363 ft 5 kts 160°
2026-04-16 12:17 50.03976 8.54690 364 ft 4 kts 161°
2026-04-16 12:17 50.03959 8.54690 364 ft 1 kts 185°
2026-04-16 12:17 50.03946 8.54680 363 ft 4 kts 208°
2026-04-16 12:18 50.03924 8.54617 364 ft 11 kts 248°
2026-04-16 12:18 50.03891 8.54483 362 ft 16 kts 249°
2026-04-16 12:18 50.03838 8.54325 357 ft 16 kts 236°
2026-04-16 12:18 50.03787 8.54171 359 ft 16 kts 246°
2026-04-16 12:19 50.03748 8.54012 358 ft 16 kts 250°
2026-04-16 12:19 50.03710 8.53854 355 ft 16 kts 249°
2026-04-16 12:19 50.03671 8.53693 354 ft 16 kts 249°
2026-04-16 12:19 50.03630 8.53528 355 ft 16 kts 249°
2026-04-16 12:20 50.03590 8.53361 355 ft 17 kts 249°
2026-04-16 12:20 50.03549 8.53192 356 ft 17 kts 249°
2026-04-16 12:20 50.03508 8.53021 354 ft 17 kts 250°
2026-04-16 12:20 50.03466 8.52856 352 ft 15 kts 246°
2026-04-16 12:21 50.03439 8.52752 353 ft 0 kts 249°
2026-04-16 12:21 50.03437 8.52744 352 ft 1 kts 249°
2026-04-16 12:21 50.03432 8.52725 353 ft 2 kts 249°
2026-04-16 12:21 50.03425 8.52696 351 ft 3 kts 249°
2026-04-16 12:22 50.03416 8.52660 350 ft 4 kts 249°
2026-04-16 12:22 50.03406 8.52621 349 ft 4 kts 244°
2026-04-16 12:22 50.03392 8.52602 352 ft 2 kts 215°
2026-04-16 12:22 50.03385 8.52598 349 ft 0 kts 197°
2026-04-16 12:23 50.03377 8.52597 350 ft 4 kts 190°
2026-04-16 12:23 50.03365 8.52595 351 ft 0 kts 183°
2026-04-16 12:23 50.03336 8.52596 345 ft 20 kts 180°
2026-04-16 12:23 50.02713 8.52602 351 ft 157 kts 180°
2026-04-16 12:24 50.01447 8.52666 1302 ft 184 kts 180°
2026-04-16 12:24 50.00150 8.52808 2913 ft 193 kts 179°
2026-04-16 12:24 49.98814 8.53018 4439 ft 196 kts 178°
2026-04-16 12:24 49.97457 8.53260 5956 ft 196 kts 178°
2026-04-16 12:25 49.96093 8.53470 7488 ft 190 kts 181°
2026-04-16 12:25 49.94707 8.53501 8737 ft 220 kts 185°
2026-04-16 12:25 49.93046 8.53465 9490 ft 252 kts 184°
2026-04-16 12:25 49.91191 8.53466 10268 ft 281 kts 182°
2026-04-16 12:26 49.89207 8.53518 11030 ft 290 kts 181°
2026-04-16 12:26 49.87208 8.53321 11774 ft 291 kts 195°
2026-04-16 12:26 49.85900 8.52775 12285 ft 297 kts 200°
2026-04-16 12:26 49.83868 8.51673 13057 ft 321 kts 203°
2026-04-16 12:27 49.81703 8.50408 13808 ft 344 kts 203°
2026-04-16 12:27 49.79432 8.49075 14576 ft 360 kts 203°
2026-04-16 12:27 49.77076 8.47648 14980 ft 366 kts 208°
2026-04-16 12:27 49.75061 8.45325 15354 ft 362 kts 230°
2026-04-16 12:28 49.73812 8.41994 15727 ft 361 kts 252°
2026-04-16 12:28 49.73376 8.38179 15951 ft 363 kts 270°
2026-04-16 12:28 49.73762 8.34346 15990 ft 364 kts 288°
2026-04-16 12:28 49.74693 8.30706 16001 ft 366 kts 291°
2026-04-16 12:29 49.75671 8.27066 16001 ft 367 kts 291°
2026-04-16 12:29 49.76647 8.23440 16000 ft 367 kts 291°
2026-04-16 12:29 49.77619 8.19815 16000 ft 366 kts 291°
2026-04-16 12:29 49.78587 8.16182 16001 ft 367 kts 291°
2026-04-16 12:30 49.79559 8.12520 16000 ft 367 kts 291°
2026-04-16 12:30 49.80522 8.08880 16000 ft 366 kts 291°
2026-04-16 12:30 49.81484 8.05231 15999 ft 366 kts 291°
2026-04-16 12:30 49.82316 8.01577 16000 ft 366 kts 286°
2026-04-16 12:31 49.82988 7.97772 16000 ft 366 kts 283°
2026-04-16 12:31 49.83589 7.93955 16000 ft 366 kts 283°
2026-04-16 12:31 49.84170 7.90140 16000 ft 366 kts 283°
2026-04-16 12:31 49.84750 7.86319 16000 ft 366 kts 283°
2026-04-16 12:32 49.85334 7.82505 16001 ft 366 kts 283°
2026-04-16 12:32 49.85925 7.78665 16000 ft 366 kts 283°
2026-04-16 12:32 49.86519 7.74849 16000 ft 366 kts 283°
2026-04-16 12:32 49.87115 7.71025 15999 ft 367 kts 283°
2026-04-16 12:33 49.87708 7.67191 16000 ft 367 kts 283°
2026-04-16 12:33 49.88300 7.63358 16000 ft 367 kts 283°
2026-04-16 12:33 49.88890 7.59532 16000 ft 367 kts 283°
2026-04-16 12:33 49.89482 7.55692 16001 ft 368 kts 283°
2026-04-16 12:34 49.90072 7.51853 16000 ft 367 kts 283°
2026-04-16 12:34 49.90663 7.48003 16001 ft 367 kts 283°
2026-04-16 12:34 49.91250 7.44170 15999 ft 367 kts 283°
2026-04-16 12:34 49.91838 7.40328 16001 ft 367 kts 283°
2026-04-16 12:35 49.92423 7.36492 16000 ft 367 kts 283°
2026-04-16 12:35 49.92992 7.32754 15958 ft 343 kts 283°
2026-04-16 12:35 49.93522 7.29268 15476 ft 332 kts 283°
2026-04-16 12:35 49.94041 7.25840 14977 ft 323 kts 282°
2026-04-16 12:36 49.94548 7.22484 14477 ft 316 kts 282°
2026-04-16 12:36 49.95043 7.19203 13974 ft 310 kts 282°
2026-04-16 12:36 49.95526 7.15990 13480 ft 304 kts 282°
2026-04-16 12:36 49.96003 7.12818 12980 ft 299 kts 282°
2026-04-16 12:37 49.96451 7.09706 12479 ft 291 kts 278°
2026-04-16 12:37 49.96358 7.06615 11966 ft 287 kts 255°
2026-04-16 12:37 49.95442 7.03895 11484 ft 285 kts 233°
2026-04-16 12:37 49.94149 7.01588 10970 ft 283 kts 230°
2026-04-16 12:38 49.92866 6.99292 10477 ft 280 kts 232°
2026-04-16 12:38 49.91675 6.96930 9979 ft 278 kts 235°
2026-04-16 12:38 49.90559 6.94506 9482 ft 276 kts 237°
2026-04-16 12:38 49.89508 6.92062 8982 ft 265 kts 239°
2026-04-16 12:39 49.88550 6.89732 8462 ft 249 kts 239°
2026-04-16 12:39 49.87669 6.87520 7982 ft 235 kts 240°
2026-04-16 12:39 49.86856 6.85442 7493 ft 215 kts 241°
2026-04-16 12:39 49.86090 6.83460 6985 ft 212 kts 241°
2026-04-16 12:40 49.85343 6.81513 6505 ft 210 kts 241°
2026-04-16 12:40 49.84605 6.79575 5997 ft 208 kts 242°
2026-04-16 12:40 49.83887 6.77683 5512 ft 206 kts 242°
2026-04-16 12:40 49.83169 6.75786 5013 ft 204 kts 242°
2026-04-16 12:41 49.82455 6.73896 4512 ft 203 kts 242°
2026-04-16 12:41 49.81748 6.72023 4097 ft 202 kts 242°
2026-04-16 12:41 49.81041 6.70151 3729 ft 201 kts 242°
2026-04-16 12:41 49.80337 6.68284 3359 ft 200 kts 242°
2026-04-16 12:42 49.79637 6.66429 3049 ft 199 kts 241°
2026-04-16 12:42 49.78936 6.64571 3015 ft 200 kts 241°
2026-04-16 12:42 49.78238 6.62722 2994 ft 200 kts 241°
2026-04-16 12:42 49.77555 6.60915 3000 ft 187 kts 241°
2026-04-16 12:43 49.76904 6.59194 2984 ft 185 kts 241°
2026-04-16 12:43 49.76255 6.57478 3007 ft 185 kts 241°
2026-04-16 12:43 49.75607 6.55762 2998 ft 184 kts 241°
2026-04-16 12:43 49.74963 6.54061 3000 ft 184 kts 241°
2026-04-16 12:44 49.74316 6.52350 2996 ft 184 kts 241°
2026-04-16 12:44 49.73671 6.50646 2998 ft 184 kts 242°
2026-04-16 12:44 49.73024 6.48939 2992 ft 184 kts 241°
2026-04-16 12:44 49.72375 6.47228 3001 ft 184 kts 241°
2026-04-16 12:45 49.71730 6.45528 3005 ft 184 kts 242°
2026-04-16 12:45 49.71085 6.43816 3000 ft 184 kts 241°
2026-04-16 12:45 49.70443 6.42101 3004 ft 184 kts 242°
2026-04-16 12:45 49.69804 6.40396 3005 ft 184 kts 242°
2026-04-16 12:46 49.69159 6.38686 3000 ft 182 kts 242°
2026-04-16 12:46 49.68571 6.37131 2976 ft 161 kts 242°
2026-04-16 12:46 49.68017 6.35645 3002 ft 158 kts 242°
2026-04-16 12:46 49.67470 6.34171 2884 ft 158 kts 242°
2026-04-16 12:47 49.66927 6.32708 2666 ft 157 kts 242°
2026-04-16 12:47 49.66384 6.31242 2468 ft 157 kts 242°
2026-04-16 12:47 49.65842 6.29779 2234 ft 157 kts 242°
2026-04-16 12:47 49.65301 6.28325 2004 ft 151 kts 242°
2026-04-16 12:48 49.64754 6.26935 1726 ft 166 kts 240°
2026-04-16 12:48 49.64227 6.25521 1521 ft 140 kts 243°
2026-04-16 12:48 49.63743 6.24153 1353 ft 152 kts 241°
2026-04-16 12:48 49.63233 6.22765 1226 ft 139 kts 241°
2026-04-16 12:49 49.62842 6.21675 1226 ft 92 kts 239°
2026-04-16 12:49 49.62597 6.21020 1252 ft 54 kts 240°
2026-04-16 12:49 49.62450 6.20621 1248 ft 15 kts 250°
2026-04-16 12:49 49.62455 6.20573 1250 ft 3 kts 295°
2026-04-16 12:50 49.62465 6.20553 1253 ft 1 kts 311°
2026-04-16 12:50 49.62483 6.20526 1252 ft 7 kts 322°
2026-04-16 12:50 49.62527 6.20486 1252 ft 7 kts 331°
2026-04-16 12:50 49.62570 6.20460 1254 ft 5 kts 351°
2026-04-16 12:51 49.62602 6.20477 1250 ft 5 kts 41°
2026-04-16 12:51 49.62635 6.20532 1260 ft 9 kts 46°
2026-04-16 12:51 49.62689 6.20611 1255 ft 14 kts 40°
2026-04-16 12:51 49.62780 6.20725 1261 ft 20 kts 44°
2026-04-16 12:52 49.62860 6.20928 1255 ft 24 kts 69°
2026-04-16 12:52 49.62900 6.21081 1247 ft 8 kts 66°
2026-04-16 12:52 49.62924 6.21162 1256 ft 8 kts 66°
2026-04-16 12:52 49.62949 6.21244 1248 ft 9 kts 64°
2026-04-16 12:53 49.62979 6.21343 1248 ft 12 kts 64°
2026-04-16 12:53 49.63020 6.21465 1244 ft 13 kts 63°
2026-04-16 12:53 49.63061 6.21599 1233 ft 14 kts 65°
2026-04-16 12:53 49.63104 6.21741 1233 ft 15 kts 65°
2026-04-16 12:54 49.63146 6.21881 1243 ft 14 kts 65°
2026-04-16 12:54 49.63184 6.22004 1249 ft 12 kts 64°
2026-04-16 12:54 49.63221 6.22118 1249 ft 11 kts 60°
2026-04-16 12:54 49.63259 6.22228 1233 ft 13 kts 63°
2026-04-16 12:55 49.63301 6.22365 1229 ft 16 kts 66°
2026-04-16 12:55 49.63357 6.22493 1224 ft 0 kts 31°
2026-04-16 12:55 49.63359 6.22494 1224 ft 1 kts 25°
2026-04-16 12:55 49.63372 6.22497 1223 ft 3 kts
2026-04-16 12:56 49.63393 6.22492 1223 ft 3 kts 348°
2026-04-16 12:56 49.63424 6.22473 1223 ft 9 kts 334°
2026-04-16 12:56 49.63486 6.22420 1223 ft 11 kts 330°
2026-04-16 12:56 49.63499 6.22409 1223 ft 1 kts 337°
2026-04-16 12:57 49.63510 6.22414 1223 ft 2 kts 14°
2026-04-16 12:57 49.63518 6.22432 1223 ft 3 kts 61°
2026-04-16 12:57 49.63541 6.22498 1223 ft 1 kts 60°
2026-04-16 12:57 49.63542 6.22500 1223 ft 1 kts 60°
2026-04-16 12:58 49.63545 6.22509 1223 ft 1 kts 60°
2026-04-16 12:58 49.63548 6.22515 1223 ft 0 kts 60°